STARLINK-6036, 56800

Orbit data source: Space-Track

STARLINK-6036, 56800 is a payload satellite owned by SpaceX/Seattle (US) in LEO that was launched on Wed, 31 May 2023 UTC via an FALCON 9 launch vehicle from the Air Force Western Test Range (AFWTR). Payload-class satellites include a variety of spacecraft equipped with specific instruments for various scientific and technological missions. These include communications satellites like Starlink; space stations such as the ISS; scientific satellites like the Hubble; Earth observation satellites from companies like Planet Labs, Umbra, and HawkEye 360; GPS; miniature CubeSats for education and research; and military/defense satellites.

Loading next visibility...
Identifier
56800, 2023-078AK
Orbit
LEO
Country
Flag of USUS
Related business
Manufacturer
SpaceX/Seattle
Mission
Operational Commercial Communications
Bus & Motor
STARLINK, Unknown motor
Mass
305 kg wet, ~290 kg dry
Launch date (UTC)
2023-05-31 (3 years ago)
Launch vehicle
FALCON 9
Launch site
Air Force Western Test Range (AFWTR)
Object type
Payload
Rocket body
Debris
Shape & HBR
Box + 1 Pan, 10.1 m
Radar Cross Section
11.087 m², Large (>1 m²)

Expand to show TLE details & history
Last TLE update: 2 days ago

TLE from 2 days ago
0 STARLINK-6036
1 56800U 23078AK  26171.19735262  .00000696  00000-0  66100-4 0  9999
2 56800  69.9997  86.0475 0002890 270.1901  89.8927 14.98334622168032
Epoch: 2026-06-20T04:44Z
TLE epoch observation values (Epoch: 2026-06-20T04:44:11.266Z)
Latitude
-0.00001°
Longitude
106.58512°
Altitude
574.462 km
Speed
7.574 km/s
True Right ascension
05h 44m 11s
True Declination
0° 00' 00"
Sunlit
Object was in daylight at epoch
Visualization orbit readout
Latitude
Unknown
Longitude
Unknown
Altitude
Unknown
Speed
Unknown
Apparent Right ascension
Unknown
Apparent Declination
Unknown
Sunlit
N/A
Visualization observer readout
Local Sidereal Time
21:45:59
Azimuth
Unknown
Elevation
Unknown
Doppler factor
Unknown
Orbital elements
Apogee altitude
571.998 km
Perigee altitude
567.982 km
Semi-major axis
6,948.127 km
Eccentricity
0.00029
Inclination
69.9997°
RAAN
86.0475°
Arg. of periapsis
270.1901°
True anomaly
89.92582°
Mean anomaly
89.8927°
Eccentric anomaly
89.90926°
Mean motion
3.7475 °/min
Orbital period
96.06 mins
BSTAR
0.0000661
Loading maneuver chart data...
Computing Atmospheric mass density...

Documentation

Showing up to 5 results
|